Airfield :
LOGIN :

Register | Disclaimer

   EN    FR    IT 

 










Legend :    VFR   Marginal VFR   IFR   Intensive IFR   Very Intensive IFR
Visi :
Ceiling :
>= 8 km
>= 3000ft
5 to 8 km
1000 to 3000 ft
1500m to 5 km
500 to 1000 ft
800 to 1500m
200 to 500 ft
< 800m
< 200 ft
Symbols :   Thunderstorms  Fog  Heavy snow  Heavy precipitations  Wind > 20 kt
SIGMETs :     Misc.  Thunderstorms  Icing  Turbulence  Mountain Waves  Volcanic Ashes







- Airport Elevation : 408 ft
- IATA code : FKB


EDSB - Karlsruhe Baden Baden

CURRENT METAR :
  • 262150Z 00000KT CAVOK 03/M00 Q1031

EXPIRED METARs :
  • 262120Z 05001KT CAVOK 04/00 Q1031
  • 262050Z 02002KT CAVOK 05/M00 Q1031
  • 262020Z 07003KT CAVOK 06/M00 Q1031
  • 261950Z 03004KT CAVOK 06/00 Q1031
  • 261920Z 06005KT CAVOK 07/00 Q1030

TAF TAF EDSB
Valid from the 26 at 18:00 until the 27 at 18:00 UTC


261700Z 2618/2718 35006KT 9999 SCT045
BECMG 2618/2621 VRB03KT
BECMG 2705/2708 03007KT
No reported NOTAMs for that airfield.



MET'MAP, your aeronautical weather chart ! - Copyright ORBIFLY December 2007 - Disclaimer

ORBIFLY MET'MAP TEAM :

Programming & Development : Alexandra Zaïnal
Concept & Development : Baudouin d'Aumeries
Co-Development & Prog : Marc-Olivier Méhu
Technical & hardware support : Manuel Goepfert

Contact : metmap@orbifly.com




SOURCES & CREDITS :

   NOAA